Back to catalog

SL-8 DEB

AliveLEO
NORAD 21250·DEBRIS·🇷🇺 Russia

Launched Feb 12, 1991 from Plesetsk Cosmodrome

Loading…

Next Passes (next 24 hours)

TLE

FreshSource: Space-Track

Epoch: Sep 14, 2026, 10:51 UTC

1 21250U 91009BH  26257.45260278 -.00000002  00000-0  11657-3 0  9991
2 21250  74.0615 145.6472 0141064 188.2287 226.4040 12.18916829580239

Track SL-8 DEB in real time with AllMySat

Download on the App Store